Location: B�rgermoos
(47.6500°N, 9.0667°E)
Time: 08:22:03
(UTC+00:00)

ARGOS - Pass Details

Date: 18 September 2020
Orbit: 821 x 834 km, 98.4° (Epoch: 27 October)

Event Time Altitude Azimuth Distance (km) Brightness Sun altitude
Rises 19:14:04 0° 183° (S) 3,340 6.1 -18.0°
Reaches altitude 10° 19:16:30 10° 190° (S) 2,413 5.4 -18.4°
Maximum altitude 19:21:36 44° 262° (W) 1,121 4.2 -19.2°
Drops below altitude 10° 19:26:45 10° 334° (NNW) 2,435 6.3 -19.9°
Sets 19:29:14 0° 341° (NNW) 3,375 7.0 -20.3°
